Location: Peebles
(55.6412°N, 3.1714°W)
Time: 19:55:27
(UTC+01:00)

Envisat - Pass Details

Date: 28 February 2024
Orbit: 762 x 764 km, 98.3° (Epoch: 21 April)

Event Time Altitude Azimuth Distance (km) Brightness Sun altitude
Rises 03:13:33 0° 19° (NNE) 3,246 7.0 -32.2°
Reaches altitude 10° 03:16:00 10° 26° (NNE) 2,315 6.2 -31.9°
Maximum altitude 03:20:50 41° 97° (E) 1,096 4.0 -31.3°
Enters shadow 03:20:53 41° 99° (E) 1,096 4.0 -31.3°
